When you browse on this site, cookies collect data to enhance your experience and personalize the content and advertising you see.
Visit our Privacy Policy to learn more. By continuing to use the site, you agree to this use of cookies and data.
  • In United Kingdom
  • List of Countries
  • For 7 days
  • Water Temperature
  • Satellite Maps
  • Weather Map
  • Weather Widgets
  • user-avatar
    Login

    Hourly Weather Santa Cruz Xitla

    Today, 20 January, Sunday

    Time Temperature Precipitation Wind Pressure Humidity
    00:00 +14°C° 0 mm 2 mps 612 mmHg 83%
    01:00 +14°C° 0 mm 2 mps 612 mmHg 81%
    02:00 +13°C° 0 mm 2 mps 612 mmHg 79%
    03:00 +12°C° 0 mm 3 mps 612 mmHg 78%
    04:00 +11°C° 0 mm 3 mps 612 mmHg 76%
    05:00 +11°C° 0 mm 3 mps 611 mmHg 74%
    06:00 +10°C° 0 mm 3 mps 611 mmHg 73%
    07:00 +11°C° 0 mm 3 mps 612 mmHg 68%
    08:00 +12°C° 0 mm 3 mps 613 mmHg 63%
    09:00 +12°C° 0 mm 4 mps 613 mmHg 58%
    10:00 +14°C° 0 mm 4 mps 614 mmHg 52%
    11:00 +18°C° 0 mm 4 mps 615 mmHg 46%
    12:00 +20°C° 0 mm 4 mps 615 mmHg 40%
    13:00 +20°C° 0 mm 4 mps 615 mmHg 39%
    14:00 +21°C° 0 mm 4 mps 615 mmHg 37%
    15:00 +21°C° 0 mm 4 mps 615 mmHg 36%
    16:00 +19°C° 0 mm 3 mps 614 mmHg 41%
    17:00 +17°C° 0 mm 3 mps 613 mmHg 46%
    18:00 +16°C° 0 mm 3 mps 613 mmHg 51%
    19:00 +13°C° 0 mm 3 mps 612 mmHg 53%
    20:00 +12°C° 0 mm 3 mps 612 mmHg 55%
    21:00 +10°C° 0 mm 3 mps 612 mmHg 57%
    22:00 +10°C° 0 mm 3 mps 612 mmHg 61%
    23:00 +9°C° 0 mm 2 mps 612 mmHg 64%

    Tomorrow, 21 January, Monday

    Time Temperature Precipitation Wind Pressure Humidity
    00:00 +8°C° 0 mm 2 mps 611 mmHg 68%
    01:00 +8°C° 0 mm 2 mps 611 mmHg 70%
    02:00 +8°C° 0 mm 2 mps 611 mmHg 71%
    03:00 +7°C° 0 mm 2 mps 610 mmHg 73%
    04:00 +7°C° 0 mm 2 mps 610 mmHg 71%
    05:00 +7°C° 0 mm 2 mps 610 mmHg 69%
    06:00 +7°C° 0 mm 2 mps 610 mmHg 66%
    07:00 +9°C° 0 mm 2 mps 611 mmHg 58%
    08:00 +12°C° 0 mm 2 mps 612 mmHg 49%
    09:00 +14°C° 0 mm 2 mps 613 mmHg 41%
    10:00 +16°C° 0 mm 2 mps 614 mmHg 35%
    11:00 +19°C° 0 mm 2 mps 615 mmHg 28%
    12:00 +23°C° 0 mm 1 mps 616 mmHg 22%
    13:00 +24°C° 0 mm 1 mps 616 mmHg 22%
    14:00 +24°C° 0 mm 1 mps 615 mmHg 22%
    15:00 +25°C° 0 mm 1 mps 615 mmHg 22%
    16:00 +22°C° 0 mm 1 mps 614 mmHg 31%
    17:00 +20°C° 0 mm 1 mps 613 mmHg 39%
    18:00 +18°C° 0 mm 1 mps 612 mmHg 47%
    19:00 +15°C° 0 mm 1 mps 612 mmHg 49%
    20:00 +14°C° 0 mm 1 mps 612 mmHg 51%
    21:00 +13°C° 0 mm 1 mps 611 mmHg 53%
    22:00 +12°C° 0 mm 1 mps 611 mmHg 50%
    23:00 +12°C° 0 mm 1 mps 611 mmHg 48%

    Day after tomorrow, 22 January, Tuesday

    Time Temperature Precipitation Wind Pressure Humidity
    00:00 +12°C° 0 mm 1 mps 611 mmHg 46%
    01:00 +11°C° 0 mm 1 mps 610 mmHg 46%
    02:00 +11°C° 0 mm 1 mps 610 mmHg 45%
    03:00 +11°C° 0 mm 1 mps 609 mmHg 44%
    04:00 +11°C° 0 mm 1 mps 609 mmHg 44%
    05:00 +10°C° 0 mm 1 mps 609 mmHg 44%
    06:00 +10°C° 0 mm 1 mps 609 mmHg 44%
    07:00 +13°C° 0 mm 1 mps 610 mmHg 39%
    08:00 +15°C° 0 mm 1 mps 612 mmHg 35%
    09:00 +17°C° 0 mm 0 mps 614 mmHg 30%
    10:00 +21°C° 0 mm 1 mps 614 mmHg 29%
    11:00 +23°C° 0 mm 2 mps 615 mmHg 28%
    12:00 +24°C° 0 mm 3 mps 615 mmHg 27%
    13:00 +24°C° 0 mm 3 mps 614 mmHg 29%
    14:00 +25°C° 0 mm 4 mps 614 mmHg 30%
    15:00 +25°C° 0 mm 4 mps 613 mmHg 32%
    16:00 +22°C° 0 mm 3 mps 612 mmHg 40%
    17:00 +20°C° 0 mm 3 mps 612 mmHg 48%
    18:00 +18°C° 0 mm 2 mps 611 mmHg 56%
    19:00 +16°C° 0 mm 1 mps 611 mmHg 62%
    20:00 +15°C° 0 mm 1 mps 611 mmHg 67%
    21:00 +13°C° 0 mm 1 mps 611 mmHg 73%
    22:00 +13°C° 0 mm 1 mps 610 mmHg 73%
    23:00 +13°C° 0 mm 1 mps 610 mmHg 73%

    23 January, Wednesday

    Time Temperature Precipitation Wind Pressure Humidity
    00:00 +12°C° 0 mm 1 mps 610 mmHg 73%
    01:00 +12°C° 0 mm 1 mps 610 mmHg 73%
    02:00 +12°C° 0 mm 1 mps 609 mmHg 73%
    03:00 +11°C° 0 mm 1 mps 609 mmHg 73%
    04:00 +11°C° 0 mm 1 mps 608 mmHg 73%
    05:00 +11°C° 0 mm 1 mps 608 mmHg 72%
    06:00 +11°C° 0 mm 1 mps 608 mmHg 72%
    07:00 +13°C° 0 mm 1 mps 610 mmHg 62%
    08:00 +15°C° 0 mm 0 mps 611 mmHg 53%
    09:00 +18°C° 0 mm 0 mps 613 mmHg 43%
    10:00 +22°C° 0 mm 1 mps 614 mmHg 37%
    11:00 +23°C° 0 mm 1 mps 614 mmHg 31%
    12:00 +25°C° 0 mm 2 mps 615 mmHg 26%
    13:00 +25°C° 0 mm 2 mps 614 mmHg 26%
    14:00 +26°C° 0 mm 2 mps 614 mmHg 26%
    15:00 +26°C° 0 mm 2 mps 613 mmHg 26%
    16:00 +24°C° 0 mm 2 mps 613 mmHg 34%
    17:00 +21°C° 0 mm 2 mps 612 mmHg 43%
    18:00 +19°C° 0 mm 2 mps 612 mmHg 52%
    19:00 +17°C° 0 mm 2 mps 612 mmHg 59%
    20:00 +16°C° 0 mm 2 mps 612 mmHg 66%
    21:00 +14°C° 0 mm 2 mps 612 mmHg 74%
    22:00 +14°C° 0 mm 2 mps 612 mmHg 77%
    23:00 +13°C° 0 mm 2 mps 612 mmHg 81%

    24 January, Thursday

    Time Temperature Precipitation Wind Pressure Humidity
    00:00 +13°C° 0 mm 2 mps 612 mmHg 84%
    01:00 +12°C° 0 mm 2 mps 611 mmHg 86%
    02:00 +12°C° 0 mm 2 mps 611 mmHg 88%
    03:00 +12°C° 0 mm 2 mps 610 mmHg 89%
    04:00 +10°C° 0 mm 2 mps 610 mmHg 89%
    05:00 +10°C° 0 mm 2 mps 610 mmHg 88%
    06:00 +10°C° 0 mm 2 mps 610 mmHg 88%
    07:00 +12°C° 0 mm 2 mps 611 mmHg 79%
    08:00 +14°C° 0 mm 2 mps 612 mmHg 70%
    09:00 +14°C° 0 mm 3 mps 613 mmHg 62%
    10:00 +17°C° 0 mm 2 mps 614 mmHg 54%
    11:00 +19°C° 0 mm 2 mps 615 mmHg 46%
    12:00 +23°C° 0 mm 2 mps 616 mmHg 39%
    13:00 +23°C° 0 mm 2 mps 615 mmHg 38%
    14:00 +24°C° 0 mm 2 mps 615 mmHg 37%
    15:00 +25°C° 0 mm 1 mps 614 mmHg 37%
    16:00 +23°C° 0 mm 2 mps 613 mmHg 45%
    17:00 +20°C° 0 mm 2 mps 613 mmHg 54%
    18:00 +18°C° 0 mm 2 mps 612 mmHg 63%
    19:00 +17°C° 0 mm 2 mps 612 mmHg 67%
    20:00 +15°C° 0 mm 2 mps 612 mmHg 71%
    21:00 +14°C° 0 mm 2 mps 612 mmHg 75%
    22:00 +13°C° 0 mm 2 mps 612 mmHg 75%
    23:00 +13°C° 0 mm 2 mps 611 mmHg 75%

    25 January, Friday

    Time Temperature Precipitation Wind Pressure Humidity
    00:00 +12°C° 0 mm 1 mps 611 mmHg 75%
    01:00 +12°C° 0 mm 1 mps 611 mmHg 75%
    02:00 +12°C° 0 mm 1 mps 610 mmHg 76%
    03:00 +11°C° 0 mm 1 mps 610 mmHg 76%
    04:00 +11°C° 0 mm 1 mps 610 mmHg 76%
    05:00 +10°C° 0 mm 2 mps 610 mmHg 76%
    06:00 +10°C° 0 mm 2 mps 610 mmHg 76%
    07:00 +13°C° 0 mm 2 mps 612 mmHg 67%
    08:00 +15°C° 0 mm 2 mps 613 mmHg 59%
    09:00 +17°C° 0 mm 2 mps 615 mmHg 51%
    10:00 +19°C° 0 mm 2 mps 615 mmHg 45%
    11:00 +21°C° 0 mm 3 mps 616 mmHg 40%
    12:00 +24°C° 0 mm 3 mps 617 mmHg 35%
    13:00 +24°C° 0 mm 3 mps 616 mmHg 35%
    14:00 +24°C° 0 mm 3 mps 616 mmHg 35%
    15:00 +23°C° 0 mm 4 mps 615 mmHg 35%
    16:00 +21°C° 0 mm 4 mps 614 mmHg 42%
    17:00 +19°C° 0 mm 4 mps 614 mmHg 49%
    18:00 +17°C° 0 mm 3 mps 613 mmHg 56%
    19:00 +14°C° 0 mm 3 mps 613 mmHg 59%
    20:00 +13°C° 0 mm 3 mps 613 mmHg 62%
    21:00 +11°C° 0 mm 3 mps 612 mmHg 65%
    22:00 +10°C° 0 mm 3 mps 612 mmHg 70%
    23:00 +10°C° 0 mm 3 mps 612 mmHg 74%
    Show more